User: anonymous   Login
Location: Homewood
(41.1836°S, 175.9581°E)
Time: 12:43:27
(UTC+00:00)
Language:

USA 238 DEB - Orbit

View from above orbital plane
View from above orbital plane
View from above satellite
View from above satellite

Ground track
Ground track

The orbit data is extracted from the following two-line orbital elements,

1 38773U 12048P   24120.84361617 0.00000000  00000-0  00000-0 0    01
2 38773  63.4252  33.8711 0258377 359.2797   0.4936 13.40906133    01
Epoch (UTC): 29 April 2024 20:14:48
Eccentricity: 0.0258377
inclination: 63.4252°
perigee height: 912 km
apogee height: 1299 km
right ascension of ascending node: 33.8711°
argument of perigee: 359.2797°
revolutions per day: 13.40906133
mean anomaly at epoch: 0.4936°
orbit number at epoch: 0

The dashed part of the orbit path shows where the satellite is in the earth's shadow,  

DLR